Regional Weather Roundup
Issued by NWS State College, PA

Home | Current Version | Previous Version | Graphics & Text | Print | Product List | Glossary On
Versions: 1 2 3 4 5 6 7 8 9 10 11 12 13 14 15 16 17 18 19 20 21 22 23 24 25 26 27 28 29 30 31 32 33 34 35 36 37 38 39 40 41 42 43 44 45 46 47 48 49 50
000
ASUS41 KCTP 241403
RWRCTP

REGIONAL WEATHER ROUNDUP
NATIONAL WEATHER SERVICE STATE COLLEGE PA
1000 AM EDT THU JUL 24 2014

Note: "fair" indicates few or no clouds below 12,000 feet with no
significant weather and/or obstructions to visibility.

* = STATION THAT DOES NOT REPORT PRECIPITATION /E.G. RAIN...SNOW...ETC/
    THUNDER OR FOG.

PAZ002>004-007>009-013>016-020>023-029>032-241500-
WESTERN PENNSYLVANIA

CITY           SKY/WX    TMP DP  RH WIND       PRES   REMARKS
ERIE           PTSUNNY   67  55  65 N14       30.06R
MEADVILLE      PTSUNNY   65  55  70 N8        30.06S
FRANKLIN*      MOSUNNY   64  55  72 NW5       30.06R
NEW CASTLE       N/A     68  57  67 CALM      30.05S
BEAVER COUNTY  MOSUNNY   66  57  72 N7        30.04S
BUTLER*        PTSUNNY   66  55  68 N9        30.05S
PITTSBURGH INT CLOUDY    68  56  65 N12       30.02S
PITTSBURGH     MOSUNNY   66  54  65 VRB6      30.01S
INDIANA*       PTSUNNY   68  57  68 VRB5G12   30.05S
LATROBE        PTSUNNY   68  59  73 NE9       30.02S
WASHINGTON CO* MOSUNNY   66  55  68 NE8       30.03R
$$

PAZ004>006-010>012-017>019-024>028-033>037-041-042-045-046-049>053-241500-
CENTRAL PENNSYLVANIA

CITY           SKY/WX    TMP DP  RH WIND       PRES   REMARKS
BRADFORD       PTSUNNY   61  52  72 N12       30.04S
DUBOIS         PTSUNNY   66  56  70 VRB6      30.02S
CLEARFIELD     MOSUNNY   67  55  65 NE6       30.02S
JOHNSTOWN      MOSUNNY   64  53  67 N8        30.02S
ALTOONA        MOSUNNY   68  57  68 N9        30.00S
STATE COLLEGE  PTSUNNY   66  57  72 E9        29.99S
WILLIAMSPORT   PTSUNNY   70  55  59 VRB7      29.96R
SELINSGROVE    PTSUNNY   72  59  63 N10G18    29.95S
FT INDIANTOWN  PTSUNNY   72  60  65 N8        29.94R
CAPITAL CITY   PTSUNNY   71  58  63 VRB7      29.94R
HARRISBURG     PTSUNNY   73  59  61 N8        29.93R
YORK           PTSUNNY   71  60  68 N8        29.94R
$$

PAZ038>040-043-044-047-048-054-055-060>062-067>071-241500-
EASTERN PENNSYLVANIA

CITY           SKY/WX    TMP DP  RH WIND       PRES   REMARKS
SCRANTON       MOSUNNY   69  55  60 N9        29.94S
MOUNT POCONO   PTSUNNY   65  54  67 N12G21    29.94F
ALLENTOWN      PTSUNNY   71  58  63 N9        29.90S
QUAKERTOWN*    PTSUNNY   72  61  68 NW9       29.91S
READING        PTSUNNY   71  58  63 N9        29.91S
LANCASTER      CLOUDY    70  60  70 N9        29.93R
COATESVILLE    CLOUDY    70  63  78 N7        29.92S
POTTSTOWN      PTSUNNY   71  59  65 N10       29.92R
BLUE BELL      PTSUNNY   72  63  73 N3        29.89R
DOYLESTOWN     PTSUNNY   73  64  73 VRB6      29.89R
WILLOW GROVE   NOT AVBL
NORTH PHILA    PTSUNNY   75  60  59 N14       29.89S
PHILADELPHIA   PTSUNNY   74  59  59 N10       29.89R
$$


USA.gov is the U.S. government's official web portal to all federal, state and local government web resources and services.